Find Starlink 32959

NORAD ID: 63569 Int'l Des: 2025-076 Owner: SPXS Country: US Constellation: starlink operational
LEOCIRCULAR

当前视图

正在加载3D地球...

About Starlink 32959

Starlink 32959 (NORAD 63569) is a starlink constellation satellite (v2 mini) launched Apr 14, 2025 by SPXS of US. It operates in LEO, CIRCULAR orbit with a mass of 730.00 kg.

即将过境

Passes for default location (London). Set your location on the main map for personalized predictions.

高度历史

Loading altitude history...

两行轨道根数

1 63569U 25076A 26264.11944789 .00007634 00000-0 28661-3 0 9998
2 63569 43.0004 301.9936 0001123 253.3797 106.6931 15.27583081 81674
Epoch: Sep 21, 2026 • Age: 32 hours

当前状态

高度 487.3 km
远地点 / 近地点 N/A
速度 7.62 km/s
星下点 -21.27°S, 30.04°W
发射日期 Apr 14, 2025
运行时间 1.4 years
类型 internet

技术详情

分类 Payload
质量 730.00 kg
干质量 700.00 kg
长度 0.30 m
跨度 29.00 m
形状 ? Box + pan
制造商 SPXS
平台类型 Starlink V2M
阶段状态 In Orbit
所有者/国家 SPXS/US

Most Searched